User: anonymous
Location: Lake Superior Provincial Park
(47.3335°N, 84.6162°W)
Time: 06:50:28
(UTC-04:00)
Language:

Cosmos 2333 Rocket - Orbit

View from above orbital plane
View from above orbital plane
View from above satellite
View from above satellite

Ground track
Ground track

The orbit data is extracted from the following two-line orbital elements,

1 24298U 96051B   14237.76191799 -.00000129  00000-0 -43562-4 0  5288
2 24298 070.8637 065.4375 0018401 268.5457 157.2649 14.12466628926897
Epoch (UTC): 25 August 2014 18:17:09
Eccentricity: 0.0018401
inclination: 70.8637°
perigee height: 837 km
apogee height: 864 km
right ascension of ascending node: 65.4375°
argument of perigee: 268.5457°
revolutions per day: 14.12466628
mean anomaly at epoch: 157.2649°
orbit number at epoch: 92689

The dashed part of the orbit path shows where the satellite is in the earth's shadow,  

DLR